Location: Alfortville
(48.8058°N, 2.4204°E)
Time: 05:19:53
(UTC+00:00)

USA 229 DEB - Pass Details

Date: 07 June 2022
Orbit: 934 x 1278 km, 63.4° (Epoch: 24 May)

Event Time Altitude Azimuth Distance (km) Brightness Sun altitude
Rises 22:41:30 0° 313° (NW) 4,006 7.8 -16.8°
Reaches altitude 10° 22:44:30 10° 303° (WNW) 3,093 6.8 -16.9°
Maximum altitude 22:50:42 29° 247° (WSW) 2,063 5.1 -17.2°
Enters shadow 22:55:09 17° 202° (SSW) 2,695 5.3 -17.4°
